TimeEDT,TemperatureF,Dew PointF,Humidity,Sea Level PressureIn,VisibilityMPH,Wind Direction,Wind SpeedMPH,Gust SpeedMPH,PrecipitationIn,Events,Conditions,WindDirDegrees,DateUTC
12:53 AM,57.9,45.0,62,29.52,10.0,Variable,5.8,-,N/A,,Clear,0,2013-05-15 04:53:00
1:53 AM,57.9,45.0,62,29.48,10.0,Calm,Calm,-,N/A,,Clear,0,2013-05-15 05:53:00
2:53 AM,60.1,46.0,60,29.46,10.0,Variable,4.6,-,N/A,,Clear,0,2013-05-15 06:53:00
3:53 AM,63.0,46.9,56,29.44,10.0,South,6.9,-,N/A,,Clear,190,2013-05-15 07:53:00
4:53 AM,64.9,50.0,58,29.47,10.0,West,10.4,18.4,N/A,,Clear,270,2013-05-15 08:53:00
5:53 AM,60.1,46.9,62,29.55,10.0,Calm,Calm,-,N/A,,Clear,0,2013-05-15 09:53:00
6:53 AM,57.9,45.0,62,29.58,10.0,NW,12.7,-,N/A,,Partly Cloudy,310,2013-05-15 10:53:00
7:53 AM,60.1,44.1,55,29.62,10.0,NW,9.2,-,N/A,,Partly Cloudy,310,2013-05-15 11:53:00
8:53 AM,62.1,44.1,52,29.65,10.0,North,11.5,20.7,N/A,,Partly Cloudy,350,2013-05-15 12:53:00
9:53 AM,63.0,44.1,50,29.68,10.0,NNW,16.1,26.5,N/A,,Clear,330,2013-05-15 13:53:00
10:53 AM,64.0,44.1,48,29.70,10.0,NNW,15.0,-,N/A,,Partly Cloudy,330,2013-05-15 14:53:00
11:53 AM,68.0,44.1,42,29.73,10.0,NNW,15.0,23.0,N/A,,Partly Cloudy,330,2013-05-15 15:53:00
12:53 PM,69.1,44.1,40,29.75,10.0,WNW,15.0,24.2,N/A,,Scattered Clouds,290,2013-05-15 16:53:00
1:53 PM,72.0,41.0,33,29.75,10.0,NW,20.7,25.3,N/A,,Scattered Clouds,320,2013-05-15 17:53:00
2:53 PM,72.0,39.0,30,29.74,10.0,NW,19.6,25.3,N/A,,Scattered Clouds,320,2013-05-15 18:53:00
3:53 PM,73.0,39.9,30,29.73,10.0,West,15.0,23.0,N/A,,Mostly Cloudy,270,2013-05-15 19:53:00
4:53 PM,73.9,39.0,28,29.73,10.0,West,15.0,21.9,N/A,,Mostly Cloudy,260,2013-05-15 20:53:00
5:53 PM,73.9,37.9,27,29.73,10.0,West,17.3,-,N/A,,Scattered Clouds,270,2013-05-15 21:53:00
6:53 PM,73.9,35.1,24,29.74,10.0,West,18.4,24.2,N/A,,Scattered Clouds,280,2013-05-15 22:53:00
7:53 PM,72.0,37.0,28,29.74,10.0,WSW,11.5,17.3,N/A,,Scattered Clouds,250,2013-05-15 23:53:00
8:53 PM,69.1,39.0,33,29.75,10.0,WSW,6.9,-,N/A,,Partly Cloudy,250,2013-05-16 00:53:00
9:53 PM,64.9,41.0,42,29.76,10.0,SW,4.6,-,N/A,,Partly Cloudy,230,2013-05-16 01:53:00
10:53 PM,62.1,43.0,50,29.77,10.0,SW,4.6,-,N/A,,Clear,230,2013-05-16 02:53:00
11:53 PM,61.0,43.0,52,29.77,10.0,WSW,8.1,-,N/A,,Clear,240,2013-05-16 03:53:00